Regional Weather Roundup
Issued by NWS

Home | Current Version | Previous Version | Graphics & Text | Print | Product List | Glossary On
Versions: 1 2 3 4 5 6 7 8 9 10 11 12 13 14 15 16 17 18 19 20 21 22 23 24 25 26 27 28 29 30 31 32 33 34 35 36 37 38 39 40 41 42 43 44 45 46 47 48 49 50
000
ASUS43 KIND 240159
RWRIN

WEATHER ROUNDUP FOR INDIANA
NATIONAL WEATHER SERVICE INDIANAPOLIS IN
900 PM EST MON JAN 23 2017

NOTE: "FAIR" INDICATES FEW OR NO CLOUDS BELOW 12,000 FEET WITH NO
SIGNIFICANT WEATHER AND/OR OBSTRUCTIONS TO VISIBILITY.

* - STATION DOES NOT REPORT WEATHER SUCH AS PRECIPITATION OR FOG.

+ - STATION NOT QUALITY CONTROLLED BY THE NATIONAL WEATHER SERVICE.
    USE DATA WITH CAUTION...ESPECIALLY DEWPOINT AND RELATIVE
    HUMIDITY OBSERVATIONS.

INZ001>003-010>013-019-020-240300-
NORTHWEST INDIANA

CITY           SKY/WX    TMP DP  RH WIND       PRES   REMARKS
MONTICELLO +   CLOUDY    38  36  93 NW8       29.77R

$$

LMZ046-743>745-240300-
SOUTHERN LAKE MICHIGAN

STATION/POSITION TIME  TEMP    WIND        PRES    WAVE
                       AIR SEA DIR/SP/G            HT
                 (UTC) (F)     (DEG/KT/KT) (MB)    (FT)
MICHIGAN CITY    0130   37     350/ 11/ 12   N/A

$$

INZ004-005-014>016-021>024-240300-
NORTH CENTRAL INDIANA

CITY           SKY/WX    TMP DP  RH WIND       PRES   REMARKS
ELKHART        CLOUDY    39  37  93 NW9       29.74S FOG
GOSHEN         CLOUDY    40  37  89 NW9       29.73S FOG
SOUTH BEND     CLOUDY    37  37 100 N9        29.76S FOG

$$

INZ006>009-017-018-025>027-240300-
NORTHEAST INDIANA

CITY           SKY/WX    TMP DP  RH WIND       PRES   REMARKS
ANGOLA *+      CLOUDY    39  30  70 N5        29.71R
FORT WAYNE     LGT RAIN  42  40  92 NW10      29.72R
KENDALLVILLE + LGT RAIN  40  40 100 NW5       29.72R

$$

INZ028-029-035-036-043>045-051>053-240300-
WEST CENTRAL INDIANA

CITY           SKY/WX    TMP DP  RH WIND       PRES   REMARKS
CRAWFORDSVL +  CLOUDY    36  36 100 NW8       29.79R FOG
LAFAYETTE      CLOUDY    39  37  92 NW6       29.79R
TERRE HAUTE    CLOUDY    39  35  86 NW10      29.81R

$$

INZ030>032-037>040-046>048-054>057-064-065-240300-
CENTRAL INDIANA

CITY           SKY/WX    TMP DP  RH WIND       PRES   REMARKS
COLUMBUS       LGT RAIN  39  39 100 NW13      29.75R FOG
INDIANAPOLIS   DRIZZLE   40  38  93 NW13      29.76R FOG
-EAGLE CREEK   CLOUDY    40  37  89 NW15G21   29.75R FOG
KOKOMO +       CLOUDY    39  38  96 NW10      29.75R FOG
MT COMFORT *+  CLOUDY    39  37  93 NW12      29.73R
SHELBYVILLE    CLOUDY    42  38  85 NW16      29.73R

$$

INZ033-034-041-042-049-050-058-059-240300-
EAST CENTRAL INDIANA

CITY           SKY/WX    TMP DP  RH WIND       PRES   REMARKS
MUNCIE         CLOUDY    42  40  92 NW13      29.70S

$$

INZ060-061-067>069-081>083-085>088-240300-
SOUTHWEST INDIANA

CITY           SKY/WX    TMP DP  RH WIND       PRES   REMARKS
EVANSVILLE     CLOUDY    42  36  79 N7        29.83R
HUNTINGBURG *+ CLOUDY    41  36  82 NW9       29.81R

$$

INZ062-063-066-070>080-084-089>092-240300-
SOUTH CENTRAL AND SOUTHEAST INDIANA

CITY           SKY/WX    TMP DP  RH WIND       PRES   REMARKS
BLOOMINGTON    CLOUDY    39  37  92 NW7       29.77S FOG
MADISON *+     CLOUDY    43  39  87 W10G17    29.75R
SEYMOUR +      CLOUDY    43  41  93 NW12G17   29.76  FOG

$$





USA.gov is the U.S. government's official web portal to all federal, state and local government web resources and services.